Regional Weather Roundup
Issued by NWS

Home | Current Version | Previous Version | Text Only | Print | Product List | Glossary On
Versions: 1 2 3 4 5 6 7 8 9 10 11 12 13 14 15 16 17 18 19 20 21 22 23 24 25 26 27 28 29 30 31 32 33 34 35 36 37 38 39 40 41 42 43 44 45 46 47 48 49 50
000
ASUS44 KBMX 250810
RWRAL

ALABAMA REGIONAL WEATHER ROUNDUP
NATIONAL WEATHER SERVICE BIRMINGHAM AL
300 AM CDT MON MAY 25 2015

NOTE: "FAIR" INDICATES FEW OR NO CLOUDS BELOW 12,000 FEET
WITH NO SIGNIFICANT WEATHER AND/OR OBSTRUCTIONS TO VISIBILITY.

THE REMARK "TC" DENOTES TEMPERATURE IN DEGREES CELSIUS.

ALZ001>011-014-016>018-020-250900-
NORTH ALABAMA

CITY           SKY/WX    TMP DP  RH WIND       PRES   REMARKS
MUSCLE SHOALS  CLOUDY    70  65  84 S7        30.11S
HUNTSVILLE     MOCLDY    70  63  78 SE7       30.13R
DECATUR        CLOUDY    67  64  90 SE7       30.13R
HALEYVILLE     FAIR      67  67 100 SE10G18   30.15S
GADSDEN        CLOUDY   N/A N/A N/A SE9       30.17R
$$

ALZ012-013-022-023-030>036-040>044-250900-
WEST CENTRAL ALABAMA

CITY           SKY/WX    TMP DP  RH WIND       PRES   REMARKS
TUSCALOOSA     CLOUDY    72  69  90 E6        30.11F
$$

ALZ015-024>027-033>036-040>044-250900-
CENTRAL ALABAMA

CITY           SKY/WX    TMP DP  RH WIND       PRES   REMARKS
BIRMINGHAM     PTCLDY    73  61  65 SE15G23   30.16S
MONTGOMERY     CLEAR     73  63  70 E9        30.15S
SHELBY CO ARPT PTCLDY    69  63  81 SE5       30.15S
MAXWELL AFB    CLEAR     74  63  69 SE9       30.14S
GREENVILLE     FAIR      72  66  81 SE7       30.13F
$$

ALZ019-021-028-029-037-038-045>048-250900-
EAST CENTRAL ALABAMA

CITY           SKY/WX    TMP DP  RH WIND       PRES   REMARKS
ANNISTON       CLOUDY    73  58  59 VRB6      30.19S
ALEXANDER CITY MOCLDY    72  58  62 SE3       30.19S
AUBURN         CLEAR     68  55  64 SE8       30.21S
$$

ALZ051>064-250900-
SOUTHWEST ALABAMA

CITY           SKY/WX    TMP DP  RH WIND       PRES   REMARKS
MOBILE         CLOUDY    77  73  87 SE13      30.07F
BROOKLEY FIELD MOCLDY    79  72  79 SE17G24   30.08F
EVERGREEN      CLOUDY    71  70  96 SE5       30.12S
$$

ALZ049-050-065>069-250900-
SOUTHEAST ALABAMA

CITY           SKY/WX    TMP DP  RH WIND       PRES   REMARKS
DOTHAN         CLEAR     73  64  73 SE9       30.21R
OZARK          MOCLDY    74  65  73 E10       30.15F
TROY           CLEAR     71  63  75 E10       30.16F
EUFAULA        FAIR      71  63  75 SE5       30.18F
$$


USA.gov is the U.S. government's official web portal to all federal, state and local government web resources and services.